Tracking 33200 objects as of 17-Feb-2026
HD Live streaming from Space Station
objects crossing your sky now

STARLINK-30710

Track STARLINK-30710 now!
10-day predictions
STARLINK-30710 is classified as:


NORAD ID: 57938
Int'l Code: 2023-148D
Perigee: 481.5 km
Apogee: 483.2 km
Inclination: 53.2 °
Period: 94.1 minutes
Semi major axis: 6853 km
RCS: Unknown
Launch date: September 25, 2023
Source: United States (US)
Launch site: AIR FORCE WESTERN TEST RANGE (AFWTR)
Your satellite tracking list
Your tracking list is empty




NASA's NSSDC Master Catalog

Two Line Element Set (TLE):
1 57938U 23148D   26048.43252962 -.00000264  00000-0  32253-5 0  9996
2 57938  53.1600 108.3122 0001229  97.1974 262.9167 15.30196193135456
Source of the keplerian elements: AFSPC